FW7622 Weather Reports


Display with metric or nautical units.
time (UTC)temp
F
wind
direction
speed
MPH
gust
MPH
rain 1hr
in
rain 24hr
in
rain mn
in
humidity
%
barometer
mb
20260901073826 59 183 0.0 0.0 0.00 0.00 0.00 99 1013.2
20260901073322 59 183 0.0 0.0 0.00 0.00 0.00 99 1013.2
20260901072818 59 183 0.0 0.0 0.00 0.00 0.00 99 1013.2
20260901072317 59 183 0.0 0.0 0.00 0.00 0.00 99 1013.2
20260901071813 59 183 0.0 0.0 0.00 0.00 0.00 99 1013.2
20260901071311 59 183 0.0 0.0 0.00 0.00 0.00 99 1013.2
20260901070810 59 183 0.0 0.0 0.00 0.00 0.00 99 1013.5
20260901070306 61 170 0.0 0.0 0.00 0.00 0.00 99 1013.2
20260901065805 61 170 0.0 0.0 0.00 0.00 0.00 99 1013.2
20260901065300 61 170 0.0 0.0 0.00 0.00 0.00 99 1013.2
20260901064756 61 170 0.0 0.0 0.00 0.00 0.00 99 1013.2
20260901064252 61 170 0.0 0.0 0.00 0.00 0.00 99 1013.2
20260901063750 61 170 0.0 0.0 0.00 0.00 0.00 99 1012.9
20260901063245 61 170 0.0 0.0 0.00 0.00 0.00 99 1013.2
20260901062741 61 170 0.0 0.0 0.00 0.00 0.00 99 1012.9
20260901062237 61 170 0.0 0.0 0.00 0.00 0.00 99 1013.2
20260901061733 61 170 0.0 0.0 0.00 0.00 0.00 99 1012.9
20260901061232 61 170 0.0 0.0 0.00 0.00 0.00 99 1012.9
20260901060727 61 170 0.0 0.0 0.00 0.00 0.00 99 1012.9
20260901060223 61 170 0.0 0.0 0.00 0.00 0.00 99 1012.9
20260901055718 0 0.0 0.0 0.00 0.00 0.00 1012.9
20260901055215 0 0.0 0.0 0.00 0.00 0.00 1012.9
20260901054711 0 0.0 0.0 0.00 0.00 0.00 1012.9
20260901054208 63 162 0.0 0.0 0.00 0.00 0.00 99 1012.9
20260901053703 63 162 0.0 0.0 0.00 0.00 0.00 99 1012.9
20260901053159 63 162 0.0 0.0 0.00 0.00 0.00 99 1012.5
20260901052654 63 162 0.0 0.0 0.00 0.00 0.00 99 1012.5
20260901052149 63 162 0.0 0.0 0.00 0.00 0.00 99 1012.9
20260901051648 63 162 0.0 0.0 0.00 0.00 0.00 99 1012.5
20260901051148 63 162 0.0 0.0 0.00 0.00 0.00 99 1012.9
20260901050643 63 162 0.0 0.0 0.00 0.00 0.00 99 1012.5
20260901050138 63 162 0.0 0.0 0.00 0.00 0.00 99 1012.2
20260901045638 63 162 0.0 0.0 0.00 0.00 0.00 99 1012.5
20260901045133 63 162 0.0 0.0 0.00 0.00 0.00 99 1012.2
20260901044629 63 162 0.0 0.0 0.00 0.00 0.00 99 1012.2
20260901044125 63 162 0.0 0.0 0.00 0.00 0.00 99 1012.5
20260901043620 65 163 0.0 0.0 0.00 0.00 0.00 99 1012.2
20260901043116 65 163 0.0 0.0 0.00 0.00 0.00 99 1012.5
20260901042615 65 163 0.0 0.0 0.00 0.00 0.00 99 1012.5
20260901042110 65 163 0.0 0.0 0.00 0.00 0.00 99 1012.5
20260901041606 65 163 0.0 0.0 0.00 0.00 0.00 99 1012.5
20260901041101 65 163 0.0 0.0 0.00 0.00 0.00 99 1012.5
20260901040600 65 163 0.0 0.0 0.00 0.00 0.00 99 1012.5
20260901040055 65 163 0.0 0.0 0.00 0.00 0.00 99 1012.5
20260901035553 65 163 0.0 0.0 0.00 0.00 0.00 99 1012.5
20260901035052 65 163 0.0 0.0 0.00 0.00 0.00 99 1012.5
20260901034551 65 163 0.0 0.0 0.00 0.00 0.00 99 1012.2
20260901034051 65 163 0.0 0.0 0.00 0.00 0.00 99 1012.2
20260901033550 66 163 0.0 0.0 0.00 0.00 0.00 99 1012.5
20260901033045 66 163 0.0 0.0 0.00 0.00 0.00 99 1012.2
20260901032544 66 163 0.0 0.0 0.00 0.00 0.00 99 1012.2
20260901032039 66 163 0.0 0.0 0.00 0.00 0.00 99 1012.2
20260901031534 67 163 0.0 0.0 0.00 0.00 0.00 99 1012.5
20260901031030 68 164 0.0 0.0 0.00 0.00 0.00 99 1012.2
20260901030530 68 164 0.0 0.0 0.00 0.00 0.00 99 1012.2
20260901030025 68 164 0.0 0.0 0.00 0.00 0.00 99 1012.2
20260901025519 68 164 0.0 0.0 0.00 0.00 0.00 99 1012.2
20260901025019 68 164 0.0 0.0 0.00 0.00 0.00 99 1012.2
20260901024514 68 164 0.0 0.0 0.00 0.00 0.00 99 1012.2
20260901024013 68 167 0.0 0.0 0.00 0.00 0.00 99 1012.2
20260901023507 68 167 0.0 0.0 0.00 0.00 0.00 99 1012.2
20260901023002 68 167 0.0 0.0 0.00 0.00 0.00 99 1012.2
20260901022457 69 168 0.0 0.0 0.00 0.00 0.00 99 1012.2
20260901021952 69 168 0.0 0.0 0.00 0.00 0.00 99 1012.2
20260901021448 69 167 0.0 0.0 0.00 0.00 0.00 99 1011.8
20260901020943 69 167 0.0 0.0 0.00 0.00 0.00 99 1012.2
20260901020438 69 168 0.0 0.0 0.00 0.00 0.00 99 1012.2
20260901015937 70 168 0.0 0.0 0.00 0.00 0.00 99 1012.2
20260901015434 70 169 0.0 0.0 0.00 0.00 0.00 99 1011.8
20260901014933 70 169 0.0 0.0 0.00 0.00 0.00 99 1011.8
20260901014430 70 171 0.0 0.0 0.00 0.00 0.00 99 1011.8
20260901013925 71 171 0.0 0.0 0.00 0.00 0.00 99 1011.8
20260901013420 71 169 0.0 0.0 0.00 0.00 0.00 99 1011.8
20260901012916 71 190 0.0 0.0 0.00 0.00 0.00 99 1011.8
20260901012411 71 190 0.0 0.0 0.00 0.00 0.00 99 1011.5
20260901011906 72 190 0.0 0.0 0.00 0.00 0.00 99 1011.5
20260901011402 72 190 0.0 0.0 0.00 0.00 0.00 99 1011.5
20260901010900 72 190 0.0 0.0 0.00 0.00 0.00 99 1011.5
20260901010355 73 191 0.0 0.0 0.00 0.00 0.00 99 1011.5
20260901005853 73 191 0.0 0.0 0.00 0.00 0.00 99 1011.5
20260901005348 74 191 0.0 0.0 0.00 0.00 0.00 99 1011.5
20260901004839 75 191 0.0 0.0 0.00 0.00 0.00 99 1011.5
20260901004338 75 191 0.0 0.0 0.00 0.00 0.00 98 1011.1
20260901003832 76 191 0.0 0.0 0.00 0.00 0.00 96 1011.5
20260901003328 76 191 0.0 0.0 0.00 0.00 0.00 95 1011.5
20260901002826 76 191 0.0 0.0 0.00 0.00 0.00 94 1011.1
20260901002321 77 191 0.0 0.0 0.00 0.00 0.00 94 1011.1
20260901001820 77 191 0.0 0.0 0.00 0.00 0.00 94 1011.1
20260901001316 78 191 0.0 0.0 0.00 0.00 0.00 93 1011.1
20260901000811 78 191 0.0 0.0 0.00 0.00 0.00 92 1011.1
20260901000307 79 191 0.0 0.0 0.00 0.00 0.00 90 1011.1
20260831235804 80 191 0.0 0.0 0.00 0.00 0.00 88 1011.1
20260831235301 81 190 0.0 0.0 0.00 0.00 0.00 87 1010.7
20260831234756 82 191 0.0 0.0 0.00 0.00 0.00 86 1011.1
20260831234255 82 190 0.0 0.0 0.00 0.00 0.00 86 1011.1
20260831233751 83 190 0.0 0.0 0.00 0.00 0.00 86 1011.1
20260831233246 83 190 0.0 0.0 0.00 0.00 0.00 85 1011.1
20260831232741 83 190 0.0 0.0 0.00 0.00 0.00 80 1011.1
20260831232237 84 190 0.0 0.0 0.00 0.00 0.00 80 1010.7
20260831231733 84 191 0.0 0.0 0.00 0.00 0.00 80 1011.1
20260831231229 84 186 0.0 0.0 0.00 0.00 0.00 78 1010.7
20260831230724 84 186 0.0 1.0 0.00 0.00 0.00 78 1010.7
20260831230219 85 172 0.0 1.0 0.00 0.00 0.00 75 1010.7
20260831225718 86 146 0.0 0.0 0.00 0.00 0.00 76 1011.1
20260831225214 86 148 1.0 1.0 0.00 0.00 0.00 74 1010.7
20260831224708 86 163 0.0 0.0 0.00 0.00 0.00 75 1011.1
20260831224204 86 147 0.0 1.0 0.00 0.00 0.00 74 1010.7
20260831223659 87 232 0.0 0.0 0.00 0.00 0.00 73 1010.7
20260831223156 87 180 0.0 0.0 0.00 0.00 0.00 71 1010.4
20260831222651 87 202 0.0 0.0 0.00 0.00 0.00 72 1010.4
20260831222147 87 242 1.0 2.0 0.00 0.00 0.00 72 1010.4
20260831221642 88 188 0.0 0.0 0.00 0.00 0.00 71 1010.4
20260831221137 88 231 1.0 1.0 0.00 0.00 0.00 70 1010.4
20260831220632 88 173 2.0 3.0 0.00 0.00 0.00 70 1010.4
20260831220127 88 198 0.0 0.0 0.00 0.00 0.00 70 1010.7
20260831215623 88 279 0.0 1.0 0.00 0.00 0.00 70 1010.7
20260831215118 89 251 3.0 5.0 0.00 0.00 0.00 70 1010.4
20260831214615 89 200 1.0 1.0 0.00 0.00 0.00 72 1010.4
20260831214112 89 174 0.0 1.0 0.00 0.00 0.00 71 1010.4
20260831213608 88 200 2.0 2.0 0.00 0.00 0.00 74 1010.7
20260831213103 88 70 2.0 5.0 0.00 0.00 0.00 73 1010.4
20260831212559 89 227 3.0 3.0 0.00 0.00 0.00 72 1010.4
20260831212055 89 233 1.0 2.0 0.00 0.00 0.00 73 1010.4
20260831211549 89 304 2.0 3.0 0.00 0.00 0.00 74 1010.4
20260831211048 90 200 0.0 0.0 0.00 0.00 0.00 74 1010.4
20260831210544 90 341 2.0 3.0 0.00 0.00 0.00 74 1010.4
20260831210040 90 183 1.0 1.0 0.00 0.00 0.00 74 1010.0
20260831205539 90 206 2.0 2.0 0.00 0.00 0.00 74 1010.0
20260831205035 91 269 2.0 5.0 0.00 0.00 0.00 74 1010.4
20260831204530 90 189 1.0 2.0 0.00 0.00 0.00 75 1010.0
20260831204028 90 36 2.0 2.0 0.00 0.00 0.00 74 1010.0
20260831203529 90 240 1.0 1.0 0.00 0.00 0.00 75 1010.0
20260831203027 88 122 0.0 0.0 0.00 0.00 0.00 78 1010.0
20260831202522 90 218 1.0 2.0 0.00 0.00 0.00 76 1009.7
20260831202021 90 325 1.0 1.0 0.00 0.00 0.00 73 1010.0
20260831201520 90 166 1.0 1.0 0.00 0.00 0.00 74 1009.7
20260831201016 90 204 1.0 1.0 0.00 0.00 0.00 74 1009.7
20260831200512 89 206 1.0 1.0 0.00 0.00 0.00 75 1010.0
20260831200006 90 195 1.0 1.0 0.00 0.00 0.00 77 1009.7
20260831195502 89 156 2.0 2.0 0.00 0.00 0.00 77 1009.7
20260831195001 90 174 1.0 2.0 0.00 0.00 0.00 73 1009.7
20260831194457 89 192 0.0 1.0 0.00 0.00 0.00 77 1010.0
20260831193956 90 169 2.0 2.0 0.00 0.00 0.00 75 1009.7
20260831193452 90 160 0.0 0.0 0.00 0.00 0.00 75 1010.0
20260831192947 90 327 1.0 1.0 0.00 0.00 0.00 77 1009.7
20260831192442 90 191 0.0 1.0 0.00 0.00 0.00 78 1009.7
20260831191937 89 198 0.0 0.0 0.00 0.00 0.00 77 1010.0
20260831191433 89 220 0.0 0.0 0.00 0.00 0.00 78 1009.7
20260831190929 88 185 1.0 1.0 0.00 0.00 0.00 79 1009.7
20260831190424 87 190 0.0 1.0 0.00 0.00 0.00 82 1010.0
20260831185923 87 149 2.0 2.0 0.00 0.00 0.00 82 1010.0
20260831185419 86 176 0.0 0.0 0.00 0.00 0.00 81 1010.0
20260831184918 87 170 0.0 1.0 0.00 0.00 0.00 82 1010.0
20260831184413 86 168 0.0 0.0 0.00 0.00 0.00 80 1010.0
20260831183908 86 185 0.0 0.0 0.00 0.00 0.00 82 1010.4
20260831183408 86 198 2.0 2.0 0.00 0.00 0.00 83 1010.0
20260831182907 85 139 2.0 2.0 0.00 0.00 0.00 83 1010.0
20260831182403 86 71 1.0 2.0 0.00 0.00 0.00 83 1010.4
20260831181858 86 178 1.0 1.0 0.00 0.00 0.00 83 1010.0
20260831181353 86 182 0.0 1.0 0.00 0.00 0.00 83 1010.4
20260831180848 86 188 0.0 0.0 0.00 0.00 0.00 84 1010.4
20260831180342 85 152 2.0 2.0 0.00 0.00 0.00 84 1010.4
20260831175841 85 269 1.0 2.0 0.00 0.00 0.00 84 1010.4
20260831175338 84 184 1.0 1.0 0.00 0.00 0.00 85 1010.0
20260831174834 85 171 3.0 5.0 0.00 0.00 0.00 85 1010.0
20260831174329 85 187 0.0 0.0 0.00 0.00 0.00 85 1010.4
20260831173828 85 203 1.0 1.0 0.00 0.00 0.00 86 1010.4
20260831173322 85 165 1.0 1.0 0.00 0.00 0.00 84 1010.4
20260831172818 85 251 1.0 1.0 0.00 0.00 0.00 85 1010.4
20260831172313 85 185 0.0 0.0 0.00 0.00 0.00 85 1010.4
20260831171808 84 271 1.0 1.0 0.00 0.00 0.00 85 1010.4
20260831171304 84 186 1.0 1.0 0.00 0.00 0.00 85 1010.4
20260831170801 84 185 0.0 0.0 0.00 0.00 0.00 86 1010.4
20260831170257 84 181 1.0 1.0 0.00 0.00 0.00 85 1010.4
20260831165753 84 177 1.0 1.0 0.00 0.00 0.00 85 1010.4
20260831165249 84 205 1.0 1.0 0.00 0.00 0.00 86 1010.0
20260831164744 84 169 0.0 0.0 0.00 0.00 0.00 85 1010.4
20260831164241 84 186 1.0 1.0 0.00 0.00 0.00 84 1010.4
20260831163736 84 198 1.0 2.0 0.00 0.00 0.00 85 1010.4
20260831163232 84 179 0.0 0.0 0.00 0.00 0.00 84 1010.4
20260831162730 84 196 1.0 2.0 0.00 0.00 0.00 85 1010.4
20260831162230 84 243 2.0 2.0 0.00 0.00 0.00 84 1010.0
20260831161724 85 200 1.0 1.0 0.00 0.00 0.00 84 1009.7
20260831161221 85 168 0.0 0.0 0.00 0.00 0.00 85 1009.7
20260831160720 84 126 2.0 2.0 0.00 0.00 0.00 83 1009.7
20260831160216 84 167 0.0 0.0 0.00 0.00 0.00 83 1009.7
20260831155715 84 186 0.0 1.0 0.00 0.00 0.00 84 1009.7
20260831155211 83 188 0.0 1.0 0.00 0.00 0.00 86 1009.7
20260831154706 83 153 0.0 0.0 0.00 0.00 0.00 85 1009.7
20260831154202 83 141 0.0 0.0 0.00 0.00 0.00 83 1009.7
20260831153701 82 193 0.0 1.0 0.00 0.00 0.00 85 1009.4
20260831153157 82 159 1.0 1.0 0.00 0.00 0.00 85 1009.4
20260831152652 83 184 0.0 0.0 0.00 0.00 0.00 86 1009.7
20260831152149 82 178 0.0 0.0 0.00 0.00 0.00 87 1009.4
20260831151648 81 178 1.0 1.0 0.00 0.00 0.00 87 1009.4
20260831151142 81 190 1.0 1.0 0.00 0.00 0.00 87 1009.4
20260831150638 81 195 0.0 1.0 0.00 0.00 0.00 87 1009.7
20260831150133 80 181 0.0 0.0 0.00 0.00 0.00 89 1009.4
20260831145627 80 183 0.0 0.0 0.00 0.00 0.00 89 1009.4
20260831145124 80 180 0.0 0.0 0.00 0.00 0.00 89 1009.4
20260831144619 79 182 0.0 1.0 0.00 0.00 0.00 91 1009.0
20260831144109 79 181 0.0 0.0 0.00 0.00 0.00 90 1009.4
20260831143608 80 184 0.0 0.0 0.00 0.00 0.00 89 1009.4
20260831143104 79 165 0.0 1.0 0.00 0.00 0.00 89 1009.4
20260831142601 79 161 0.0 1.0 0.00 0.00 0.00 89 1009.0
20260831142056 78 187 0.0 1.0 0.00 0.00 0.00 91 1009.0
20260831141554 78 174 0.0 0.0 0.00 0.00 0.00 92 1009.0
20260831141050 77 180 0.0 1.0 0.00 0.00 0.00 92 1009.0
20260831140549 76 182 0.0 0.0 0.00 0.00 0.00 95 1009.0
20260831140049 76 181 0.0 1.0 0.00 0.00 0.00 95 1009.0
20260831135547 76 189 0.0 0.0 0.00 0.00 0.00 94 1008.7
20260831135043 76 188 0.0 0.0 0.00 0.00 0.00 95 1009.0
20260831134539 76 158 0.0 1.0 0.00 0.00 0.00 94 1009.0
20260831134039 76 183 0.0 0.0 0.00 0.00 0.00 94 1009.0
20260831133538 76 170 0.0 0.0 0.00 0.00 0.00 94 1008.7
20260831133033 75 176 0.0 0.0 0.00 0.00 0.00 97 1008.7
20260831132530 74 175 0.0 0.0 0.00 0.00 0.00 97 1008.7
20260831132028 73 172 0.0 0.0 0.00 0.00 0.00 99 1009.0
20260831131523 73 177 0.0 0.0 0.00 0.00 0.00 99 1008.7
20260831131019 71 176 0.0 0.0 0.00 0.00 0.00 99 1008.7
20260831130514 71 162 0.0 0.0 0.00 0.00 0.00 99 1008.7
20260831130010 70 170 0.0 0.0 0.00 0.00 0.00 99 1008.7
20260831125503 69 166 0.0 0.0 0.00 0.00 0.00 99 1008.7
20260831124959 68 167 0.0 0.0 0.00 0.00 0.00 99 1008.7
20260831124454 67 185 0.0 0.0 0.00 0.00 0.00 99 1008.7
20260831123950 67 175 0.0 0.0 0.00 0.00 0.00 99 1008.4
20260831123449 66 174 0.0 0.0 0.00 0.00 0.00 99 1008.4
20260831122943 66 175 0.0 0.0 0.00 0.00 0.00 99 1008.4
20260831122439 65 177 0.0 0.0 0.00 0.00 0.00 99 1008.7
20260831121934 65 174 0.0 0.0 0.00 0.00 0.00 99 1008.7
20260831121430 65 176 0.0 0.0 0.00 0.00 0.00 99 1008.7
20260831120925 65 175 0.0 0.0 0.00 0.00 0.00 99 1008.4
20260831120420 65 174 0.0 0.0 0.00 0.00 0.00 99 1008.4
20260831115919 65 181 0.0 0.0 0.00 0.00 0.00 99 1008.7
20260831115416 65 181 0.0 0.0 0.00 0.00 0.00 99 1008.4
20260831114916 65 185 0.0 0.0 0.00 0.00 0.00 99 1008.4
20260831114415 65 171 0.0 0.0 0.00 0.00 0.00 99 1008.0
20260831113911 65 179 0.0 0.0 0.00 0.00 0.00 99 1008.4
20260831113410 65 174 0.0 0.0 0.00 0.00 0.00 99 1008.4
20260831112906 65 165 0.0 0.0 0.00 0.00 0.00 99 1008.0
20260831112406 65 158 0.0 0.0 0.00 0.00 0.00 99 1008.0
20260831111901 65 171 0.0 0.0 0.00 0.00 0.00 99 1008.0
20260831111357 65 172 0.0 0.0 0.00 0.00 0.00 99 1008.4
20260831110852 66 161 0.0 0.0 0.00 0.00 0.00 99 1008.4
20260831110347 66 163 0.0 0.0 0.00 0.00 0.00 99 1008.4
20260831105845 66 164 0.0 0.0 0.00 0.00 0.00 99 1008.4
20260831105341 66 163 0.0 0.0 0.00 0.00 0.00 99 1008.4
20260831104836 66 162 0.0 0.0 0.00 0.00 0.00 99 1008.0
20260831104332 66 166 0.0 0.0 0.00 0.00 0.00 99 1008.0
20260831103832 66 166 0.0 0.0 0.00 0.00 0.00 99 1008.0
20260831103328 66 172 0.0 0.0 0.00 0.00 0.00 99 1008.0
20260831102823 66 163 0.0 0.0 0.00 0.00 0.00 99 1008.4
20260831102318 66 171 0.0 0.0 0.00 0.00 0.00 99 1008.0
20260831101814 66 170 0.0 0.0 0.00 0.00 0.00 99 1008.4
20260831101308 67 170 0.0 0.0 0.00 0.00 0.00 99 1008.0
20260831100804 67 167 0.0 0.0 0.00 0.00 0.00 99 1008.0
20260831100300 67 181 0.0 0.0 0.00 0.00 0.00 99 1008.4
20260831095759 67 182 0.0 0.0 0.00 0.00 0.00 99 1008.4
20260831095254 67 158 0.0 0.0 0.00 0.00 0.00 99 1008.0
20260831094749 67 173 0.0 0.0 0.00 0.00 0.00 99 1008.4
20260831094244 68 175 0.0 0.0 0.00 0.00 0.00 99 1008.4
20260831093741 68 176 0.0 0.0 0.00 0.00 0.00 99 1008.4
20260831093235 68 172 0.0 0.0 0.00 0.00 0.00 99 1008.7
20260831092732 68 157 0.0 0.0 0.00 0.00 0.00 99 1008.4
20260831092227 68 175 0.0 0.0 0.00 0.00 0.00 99 1008.4
20260831091726 68 176 0.0 0.0 0.00 0.00 0.00 99 1008.4
20260831091222 68 189 0.0 0.0 0.00 0.00 0.00 99 1008.4
20260831090717 69 187 0.0 0.0 0.00 0.00 0.00 99 1008.4
20260831090213 69 182 0.0 1.0 0.00 0.00 0.00 99 1008.4
20260831085708 69 173 0.0 0.0 0.00 0.00 0.00 99 1008.4
20260831085204 69 186 0.0 0.0 0.00 0.00 0.00 99 1008.0
20260831084659 70 185 0.0 0.0 0.00 0.00 0.00 99 1008.4
20260831084155 70 178 0.0 0.0 0.00 0.00 0.00 99 1008.4
20260831083651 70 182 0.0 0.0 0.00 0.00 0.00 99 1008.0
20260831083146 70 183 0.0 0.0 0.00 0.00 0.00 99 1008.0
20260831082644 70 186 0.0 0.0 0.00 0.00 0.00 99 1008.0
20260831082140 71 183 0.0 0.0 0.00 0.00 0.00 99 1008.4
20260831081635 71 236 1.0 1.0 0.00 0.00 0.00 99 1008.4
20260831081131 71 182 0.0 0.0 0.00 0.00 0.00 99 1008.0
20260831080627 70 173 0.0 0.0 0.00 0.00 0.00 99 1008.4
20260831080121 71 177 0.0 0.0 0.00 0.00 0.00 99 1008.0
20260831075617 71 160 0.0 0.0 0.00 0.00 0.00 99 1008.4
20260831075113 71 178 0.0 0.0 0.00 0.00 0.00 99 1008.4
20260831074612 71 181 0.0 0.0 0.00 0.00 0.00 98 1008.0